Theta_e
311 319 321 322 329 333 335 334 333 336 334 335 335 336 339 343 355 371 356 355 351 355 355 351 346 343 342 344 350 350 345 342 333 332 333 336 336 333 340 345 346 342 341 349 344 341 340 335 330
320 320 319 326 331 335 336 335 334 335 334 334 334 336 336 342 355 358 357 353 353 357 357 355 344 341 341 344 349 349 345 340 333 334 334 337 335 330 339 346 347 345 339 340 344 343 340 332 327
322 319 321 327 332 333 336 336 334 335 334 333 334 335 341 351 357 357 359 352 355 358 357 356 342 340 340 344 349 348 344 339 335 336 336 337 335 329 338 342 345 345 344 337 335 337 333 327 327
318 318 320 326 329 332 333 335 336 335 335 334 334 334 336 341 346 358 359 353 356 358 355 355 341 339 342 346 348 346 344 342 339 340 339 338 332 329 337 342 344 344 342 340 338 335 331 328 330
316 318 319 323 325 329 332 333 335 335 335 334 333 334 336 346 346 357 354 354 356 355 355 354 340 340 343 347 347 345 345 344 343 344 341 338 328 334 340 341 339 340 340 339 337 334 332 331 334
317 318 318 320 322 324 327 331 333 334 335 334 333 333 336 348 347 358 353 355 355 354 356 353 342 339 343 345 345 345 345 344 344 344 341 336 328 336 337 334 331 335 334 337 336 334 332 336 340
318 318 317 319 320 322 324 326 330 332 334 335 334 333 336 343 349 357 354 354 355 354 356 352 346 343 340 341 341 342 343 341 341 341 339 332 330 336 335 333 329 331 332 336 336 335 337 338 338
320 320 318 319 319 320 323 324 326 328 329 332 333 332 333 350 349 354 355 354 354 354 353 351 347 344 344 344 339 338 338 337 337 337 335 330 334 337 335 334 330 329 331 336 335 334 335 337 337
321 322 321 319 320 320 322 322 322 324 324 326 329 331 337 348 348 350 356 354 354 354 352 349 347 344 342 342 343 336 335 334 334 336 334 335 341 342 342 339 340 329 332 333 333 334 335 336 336
322 323 324 323 322 321 322 321 320 320 320 321 323 326 332 341 346 349 353 357 355 354 353 350 348 346 343 343 346 343 342 341 341 341 343 340 339 341 340 339 342 337 334 332 331 332 332 332 337
324 323 324 324 325 323 322 321 320 320 320 321 321 325 327 334 343 346 349 356 355 354 353 351 350 347 344 344 348 344 345 343 343 342 343 339 338 341 339 341 344 345 342 343 338 337 336 334 334
323 322 322 323 324 323 322 321 321 320 320 322 322 322 324 331 338 344 346 353 356 355 353 352 353 350 346 345 347 345 346 346 346 346 345 341 343 344 342 340 343 343 342 343 342 340 338 335 334
322 322 322 321 321 323 322 321 322 322 321 321 321 322 323 324 333 337 343 346 357 356 354 354 355 352 349 349 348 346 347 347 348 348 349 346 347 346 346 343 342 341 340 341 341 340 340 340 340
321 322 322 322 321 321 321 321 321 322 322 321 320 320 321 322 324 329 343 346 354 357 356 355 357 356 353 351 350 349 349 349 349 349 349 350 349 348 348 346 345 344 342 341 340 341 340 339 339
320 320 321 321 321 320 320 320 321 321 321 321 321 320 320 321 323 324 339 347 351 356 358 357 357 358 356 354 353 353 351 351 350 349 349 351 351 350 350 348 346 345 343 343 343 342 340 340 339
320 320 320 320 320 320 320 320 321 321 321 321 321 321 321 320 322 323 331 348 349 353 358 358 358 358 358 357 356 354 352 351 351 350 350 350 350 350 352 348 346 345 345 344 343 342 341 340 340
321 322 321 321 321 320 320 320 320 321 321 321 321 322 321 321 322 324 330 349 351 355 359 359 359 358 358 358 359 356 354 354 351 351 349 351 349 350 350 349 346 347 346 345 344 344 344 347 347
323 323 323 324 322 321 321 321 322 321 321 322 322 322 322 321 321 323 338 350 358 359 359 360 360 359 356 356 357 355 355 354 352 353 354 354 352 351 349 350 349 349 348 346 344 346 349 349 345
322 323 324 323 324 323 322 322 321 321 321 321 322 323 323 323 321 323 340 351 358 361 361 358 359 359 356 354 357 354 353 352 353 353 351 352 352 351 350 350 349 350 349 346 346 348 344 342 339
322 322 324 324 323 324 323 322 322 322 322 321 322 323 323 323 321 324 330 349 349 354 357 360 360 359 356 354 354 353 353 353 351 351 351 351 350 350 349 350 349 348 348 346 345 342 341 340 337
321 323 323 324 323 323 323 323 324 323 322 322 322 322 323 323 322 324 326 331 339 349 355 358 361 360 354 352 354 353 353 351 351 350 351 350 349 349 349 348 348 349 347 343 340 342 343 342 341
321 320 321 323 324 325 322 323 323 324 323 323 322 322 323 323 323 324 326 328 336 342 349 354 358 355 352 350 352 351 351 352 350 350 348 348 348 347 347 347 348 348 344 341 342 341 341 341 343
317 319 320 321 323 323 323 324 324 324 324 324 324 323 323 323 323 323 325 326 329 336 343 350 355 354 351 349 348 351 351 349 347 346 348 349 347 346 346 344 345 345 342 339 338 342 342 341 340
317 319 321 321 322 323 322 323 324 326 325 325 324 323 323 323 323 323 324 324 327 332 340 349 353 349 348 348 349 352 350 347 345 345 346 345 345 345 344 344 342 343 343 342 341 341 341 342 341
318 321 327 325 325 325 322 323 323 324 325 325 324 324 323 323 324 324 323 324 324 327 341 352 347 345 346 347 348 350 349 347 347 346 344 344 343 342 343 341 342 341 341 341 341 342 340 340 339
318 322 325 331 325 324 322 323 324 324 325 325 325 324 324 323 324 324 324 324 323 345 348 346 345 344 347 347 347 347 347 346 345 344 343 342 342 340 338 338 338 338 337 337 336 336 336 334 333
318 325 323 322 322 323 321 323 323 323 326 328 329 325 324 324 324 324 324 325 345 345 343 342 343 344 342 343 342 344 343 340 339 339 337 335 334 332 332 332 332 331 331 331 331 330 330 330 329
317 320 324 323 325 323 322 324 324 325 326 328 329 335 338 330 328 330 340 345 341 339 340 339 339 339 339 339 339 338 337 335 334 333 332 331 330 329 328 328 328 328 327 327 327 326 326 326 326
318 320 321 322 325 325 325 323 325 327 327 331 342 338 336 337 339 340 340 337 337 337 338 338 338 337 335 334 332 330 329 328 327 327 326 325 324 323 322 322 321 322 321 321 322 322 322 321 320
319 323 321 325 328 326 324 339 336 328 331 338 333 332 332 334 336 336 336 336 336 335 335 334 332 331 329 327 324 323 321 321 320 319 319 318 319 318 317 317 317 317 317 317 317 317 317 317 317
Wind_Speed
9 9 12 11 8 9 19 21 20 3 5 2 3 9 11 7 12 5 12 8 23 26 29 31 27 24 22 21 24 24 24 23 23 22 20 20 20 20 20 19 15 13 12 12 12 11 9 8 8
11 10 12 8 13 16 17 22 18 9 6 7 7 7 10 1 16 11 13 14 23 26 27 25 28 24 22 22 25 26 25 23 23 21 20 20 20 21 21 18 14 12 11 11 11 10 8 8 8
9 13 9 11 18 20 20 20 20 15 7 7 4 4 5 9 9 8 12 20 23 24 25 25 30 26 23 23 26 26 25 23 22 20 19 18 19 20 20 17 14 12 10 10 9 9 9 10 10
11 9 8 16 25 29 29 24 6 10 9 9 9 5 7 9 3 6 13 21 23 23 25 26 31 27 24 25 28 27 26 24 22 20 18 17 18 19 17 14 12 11 10 9 9 9 10 11 12
18 10 12 21 29 29 25 27 28 11 15 14 10 13 5 10 5 8 15 20 21 23 23 25 31 28 27 27 28 27 25 24 23 21 20 19 19 18 15 13 11 11 11 10 10 10 11 12 11
10 12 16 21 27 29 29 27 19 13 16 9 7 11 4 14 8 11 16 20 20 22 21 24 30 29 28 27 27 26 24 23 22 21 19 19 20 18 15 13 12 12 12 11 11 11 11 12 10
19 15 21 24 24 27 26 28 25 16 18 18 7 11 7 12 12 12 17 20 21 21 20 24 24 26 27 26 26 25 24 22 21 20 19 19 19 17 15 12 12 12 13 12 11 11 12 12 11
16 17 27 24 22 26 19 23 23 19 23 19 15 15 12 15 13 13 16 20 21 22 21 23 24 23 21 21 24 23 22 21 20 18 18 18 18 16 14 12 12 12 13 12 12 13 13 13 12
19 18 22 29 27 21 21 16 14 15 18 21 20 16 3 12 12 13 16 20 22 22 23 24 24 24 23 21 21 23 21 19 18 17 18 17 14 14 14 13 13 12 12 12 12 13 13 14 14
22 18 31 24 22 19 21 18 14 16 18 18 13 18 11 11 12 15 17 19 23 24 25 26 25 25 24 22 20 19 17 16 16 15 15 15 14 14 14 14 14 13 13 13 13 13 14 15 13
27 29 21 25 23 20 18 16 17 16 16 19 19 18 12 12 13 14 17 22 25 26 25 26 26 25 25 22 20 20 18 17 17 17 17 17 15 13 14 13 12 12 13 11 13 13 14 15 16
31 29 28 29 19 16 19 15 19 18 18 15 15 19 18 13 14 15 17 19 26 26 25 25 26 25 24 22 20 21 20 19 17 18 18 18 15 13 13 14 11 13 15 14 16 14 16 16 17
32 30 25 23 27 22 18 20 22 21 18 19 8 14 8 12 13 15 20 21 21 25 26 24 26 25 25 20 20 21 20 19 17 17 18 18 15 14 13 13 12 13 13 15 14 16 15 15 17
27 26 28 27 21 23 22 21 20 20 16 18 17 16 15 17 16 16 18 19 24 25 25 25 24 25 24 22 19 20 18 18 16 17 18 19 16 14 13 13 13 13 13 14 13 15 16 17 18
28 25 25 28 28 22 19 27 30 21 17 18 17 16 18 22 21 17 18 22 22 25 26 25 25 25 25 23 19 19 17 15 15 17 16 18 17 14 13 14 14 14 14 12 13 13 14 16 18
19 29 25 27 23 28 20 29 26 24 22 22 19 21 22 21 22 21 21 23 23 25 28 27 26 26 24 23 21 18 16 16 16 17 17 17 16 16 13 16 15 14 13 14 14 14 15 16 16
25 24 32 25 27 22 29 25 25 15 25 26 21 20 19 21 23 22 22 23 25 27 27 27 25 25 25 22 18 18 15 15 15 13 12 18 19 18 17 16 16 13 14 14 14 13 13 11 11
34 30 23 25 26 27 27 28 23 19 17 22 25 25 22 21 22 22 22 24 20 23 23 26 25 24 24 21 18 19 14 15 13 8 8 10 12 17 17 17 16 11 14 16 15 11 8 8 9
26 26 26 25 21 27 25 23 25 21 15 19 21 22 23 23 22 26 23 24 26 27 27 23 24 22 24 22 20 17 18 15 13 10 13 14 14 15 17 16 13 14 15 15 10 9 10 12 10
29 29 25 21 24 16 19 21 24 25 22 20 21 20 22 21 23 22 23 22 22 22 22 23 23 21 22 21 20 16 15 14 13 13 15 14 13 12 13 15 14 13 14 11 10 9 9 14 11
31 28 27 18 14 16 17 21 23 24 23 21 19 20 20 20 22 22 22 22 22 23 23 23 24 21 23 22 17 14 11 11 12 13 9 10 11 12 13 13 12 10 9 11 10 11 13 14 17
27 29 25 24 15 18 19 16 21 21 25 24 24 19 20 21 20 20 21 19 25 24 23 21 26 21 21 20 18 18 15 15 16 12 11 10 10 9 9 10 9 9 8 8 12 9 17 14 12
30 22 25 26 20 17 24 16 20 28 27 28 26 25 22 21 22 24 21 24 25 24 23 21 24 21 20 22 21 17 15 11 8 8 8 6 6 7 9 9 9 9 9 10 15 12 14 13 16
24 23 24 26 17 17 19 18 16 18 24 24 25 25 24 22 21 22 25 29 26 24 24 22 22 21 21 18 15 15 12 6 9 6 8 8 4 5 5 5 7 7 8 11 10 11 12 11 12
24 21 10 14 17 14 24 21 17 22 19 23 22 24 23 22 21 21 22 21 25 25 25 23 22 20 18 18 15 13 13 10 9 8 5 6 6 3 2 1 3 4 6 6 6 6 8 8 11
28 25 15 17 23 25 26 27 21 15 11 8 14 22 23 22 20 21 22 20 23 23 24 21 21 20 18 19 17 16 17 13 10 10 11 9 7 5 6 4 3 2 2 4 5 7 8 9 10
28 22 27 17 22 18 23 21 24 14 8 5 3 10 22 22 21 21 19 17 27 22 20 19 21 20 20 19 19 17 16 14 14 13 12 12 10 7 6 5 4 4 4 5 7 9 10 10 12
24 26 22 16 17 19 23 21 14 21 16 12 15 10 11 6 11 15 17 21 24 22 20 22 21 21 21 20 19 18 17 16 14 12 11 12 11 9 7 4 3 3 5 7 9 11 12 13 15
16 20 23 21 15 15 17 21 16 21 18 16 17 13 12 13 17 18 19 25 24 23 21 23 24 24 23 22 21 20 18 17 15 13 11 10 8 6 7 5 3 5 7 9 11 13 16 17 18
17 22 29 14 23 14 12 7 14 22 19 21 15 13 13 14 18 18 18 22 24 25 26 25 25 25 23 21 21 19 17 15 14 11 10 8 6 5 5 4 3 6 9 11 13 15 17 19 21
Wind_Direction
241 252 249 258 245 231 249 240 245 125 200 268 6 257 317 358 48 73 131 146 151 150 160 164 169 172 177 179 179 177 174 172 171 170 167 164 163 163 160 153 153 151 149 149 156 155 159 153 152
232 222 234 258 235 243 237 240 239 208 165 117 242 241 242 331 72 117 148 162 153 151 159 163 170 173 176 179 178 177 175 175 173 171 169 169 167 168 166 162 159 157 156 156 158 164 163 160 155
226 218 242 219 235 240 245 233 235 186 117 208 246 234 356 44 90 129 109 158 152 153 160 168 170 174 176 178 176 177 176 176 175 173 173 172 170 171 170 171 169 167 166 165 166 169 168 165 158
209 207 246 246 234 230 246 259 293 172 201 221 236 241 143 66 347 60 148 156 151 156 163 175 172 174 176 176 176 178 179 178 177 176 175 175 174 173 173 176 176 174 172 169 169 171 167 166 162
229 241 230 229 238 248 236 238 266 201 245 201 212 238 184 107 93 126 151 159 158 160 163 172 175 175 175 174 178 180 182 182 181 180 179 179 177 176 176 179 183 183 177 175 177 176 174 171 169
214 231 236 232 237 234 249 260 234 232 227 213 183 245 233 117 128 145 159 162 164 163 161 167 176 178 177 179 181 183 185 185 185 185 183 182 178 179 180 184 186 187 182 184 184 184 180 176 178
230 217 236 243 245 235 228 240 251 235 244 245 211 254 215 161 116 153 162 165 166 165 161 166 171 178 181 181 183 185 187 187 189 189 188 184 181 182 184 188 191 191 189 191 191 190 188 191 197
234 249 244 238 246 248 244 226 233 237 233 248 254 213 249 114 144 153 166 169 169 167 164 168 171 174 177 181 186 186 187 187 189 191 189 184 184 187 191 196 198 200 200 200 199 198 200 206 217
224 243 239 238 240 245 251 246 228 245 250 245 245 233 103 120 148 158 169 175 174 171 168 170 173 174 176 177 185 187 188 189 189 189 188 187 184 196 205 201 217 205 209 214 216 216 217 222 231
223 229 236 239 242 245 243 238 214 234 227 238 219 235 140 165 180 174 180 185 181 177 173 173 174 177 178 177 180 179 182 183 181 186 189 188 198 202 204 212 214 221 212 217 223 229 233 235 239
221 235 236 241 252 259 265 229 202 206 223 212 223 212 177 203 196 197 192 191 186 180 177 176 173 179 182 180 175 183 185 186 189 189 191 194 201 203 210 209 214 220 227 226 232 234 235 240 245
227 233 244 266 254 234 260 257 240 224 244 243 213 217 223 187 211 208 195 203 188 179 182 179 174 181 191 182 180 189 189 191 195 198 197 199 206 206 213 218 214 213 222 227 231 236 235 243 249
230 235 240 246 256 260 228 241 245 244 226 251 237 224 201 211 219 215 220 197 193 178 183 184 174 183 189 193 184 194 195 194 200 198 203 207 210 212 215 225 231 223 229 226 236 246 250 247 251
233 237 242 245 250 237 248 242 239 238 234 226 234 215 222 229 221 222 211 217 190 182 182 182 179 182 188 193 187 196 198 192 203 207 205 210 216 216 221 223 229 239 237 244 250 245 252 253 257
253 247 238 235 237 234 249 247 237 233 217 218 216 223 226 223 225 223 204 217 189 188 183 182 186 185 190 196 190 194 198 210 204 217 206 206 215 224 225 227 234 241 242 250 257 258 256 254 264
236 239 239 227 226 237 223 247 229 228 223 209 224 224 223 230 226 214 220 203 201 196 184 188 188 188 191 195 195 198 204 205 214 214 213 209 215 227 219 243 238 243 247 250 249 250 252 256 258
228 231 226 239 220 217 219 240 252 200 216 218 214 224 210 211 218 214 216 199 201 195 180 184 188 190 190 196 191 195 206 210 217 223 219 203 211 219 229 235 246 235 246 251 255 257 263 297 293
215 223 240 232 228 201 225 232 253 207 202 209 218 221 221 218 215 208 206 195 183 183 177 185 187 185 185 192 186 187 205 203 219 206 188 175 205 218 229 237 250 247 246 251 247 266 264 260 255
240 228 231 227 229 224 212 238 220 240 197 219 212 216 223 222 211 202 200 192 177 184 187 183 190 178 172 180 179 180 199 208 210 205 214 215 216 222 231 241 251 245 240 256 262 242 247 257 269
240 242 246 233 218 225 207 232 242 218 221 212 215 214 209 213 209 194 190 188 185 191 189 178 185 175 176 179 188 194 194 198 205 206 204 211 222 222 235 238 238 242 247 249 243 272 260 266 262
225 228 233 236 194 212 230 237 228 233 215 208 215 209 216 203 207 194 172 183 184 182 187 185 171 169 168 173 180 168 171 178 201 197 193 216 226 229 234 243 245 234 227 249 257 243 264 276 282
229 218 239 238 228 213 202 237 223 221 222 218 210 209 201 209 206 204 177 177 184 184 185 186 160 161 166 172 163 167 181 182 200 189 210 217 219 228 234 237 233 228 222 231 254 261 264 259 262
230 229 215 235 232 231 202 219 248 199 216 210 210 210 210 197 200 204 191 183 190 184 175 178 150 158 160 157 169 179 200 176 182 203 157 214 202 220 233 246 249 236 236 246 257 259 258 255 266
220 221 216 226 213 225 233 198 225 195 213 213 199 206 205 204 199 201 193 184 182 179 167 163 143 144 151 159 171 190 175 161 155 185 179 187 180 241 240 266 252 255 255 259 264 269 262 269 278
210 200 193 208 216 221 215 227 232 210 185 206 195 194 201 197 198 192 196 188 188 181 154 143 142 141 156 168 165 160 151 157 147 172 139 109 121 93 99 230 282 277 260 280 290 270 267 260 271
196 200 200 189 196 212 223 215 208 242 151 170 182 184 195 193 193 188 190 185 188 121 126 142 142 149 162 148 158 153 152 143 134 93 113 107 103 80 52 46 22 359 318 290 289 281 269 290 282
187 206 210 215 200 216 209 215 217 170 140 146 234 181 184 186 191 188 172 179 111 123 132 137 138 134 131 132 122 119 127 122 116 117 115 116 112 102 88 62 37 8 331 323 308 292 295 289 289
207 196 215 236 211 204 199 198 186 184 164 174 183 103 56 141 174 128 101 95 109 117 121 127 131 130 130 128 126 122 116 113 112 110 111 112 111 107 97 70 34 346 323 315 311 304 299 297 289
188 199 212 224 229 207 203 192 175 182 166 163 110 91 81 86 94 99 105 106 114 130 137 133 131 129 122 116 113 108 105 102 100 98 95 88 85 97 108 96 12 335 321 311 307 303 298 293 293
208 207 207 214 218 255 207 103 346 172 133 107 103 95 94 95 106 107 106 115 126 132 132 124 121 116 112 110 105 98 94 90 86 81 76 73 72 67 30 32 35 330 318 311 305 301 300 298 297